Location: Cul de Sac
(18.0387°N, 63.0654°W)
Time: 07:20:10
(UTC+00:00)

Cosmos 1697 Rocket - Pass Details

Date: 29 October 2020
Orbit: 831 x 845 km, 71.0° (Epoch: 28 November)

Event Time Altitude Azimuth Distance (km) Brightness Sun altitude
Rises 22:03:20 0° 203° (SSW) 3,360 6.4 -6.0°
Reaches altitude 10° 22:05:46 10° 206° (SSW) 2,428 5.7 -6.5°
Maximum altitude 22:11:17 64° 287° (WNW) 913 3.2 -7.8°
Drops below altitude 10° 22:16:49 10° 9° (N) 2,438 4.9 -9.1°
Sets 22:19:17 0° 12° (NNE) 3,375 5.6 -9.7°
